[[{"header":{"parameterUnit":"m.s-1","parameterCategory":1,"la1":30.2991,"la2":30.254,"lo1":-89.0895,"lo2":-89.0444,"dy":0.0017,"dx":0.0017,"nx":28,"ny":28,"refTime":"2025-06-16T21:00:00:Z","depth":0,"parameterNumber":2,"parameterNumberName":"U-component_of_WINDS"},"data":[0,0,0,0,0,0,0,0,0,0,0,0,0,0,0,0,0,0,0,0,0,0,0,0,0,0,0,0,0,0,0,0,0,0,0,0,0,0,0,0,0,0,0,0,0,0,0,0,0,0,0,0,0,0,0,0,0,0,0.5381,0.5381,0,0.539,0.539,0.539,0.5353,0.5352,0.535,0.5349,0.5359,0.536,0.5361,0,0,0,0,0,0,0,0,0,0,0,0,0,0.533,0.5331,0.5381,0.5381,0.5381,0.539,0.539,0.539,0.5353,0.5352,0.535,0.5349,0.5358,0.536,0.5361,0,0,0,0,0,0,0,0,0,0,0,0,0,0.5347,0.5331,0.5381,0.5364,0.5362,0.539,0.539,0.539,0.5353,0.5351,0.535,0.5348,0.5358,0.536,0.5362,0.5406,0,0,0.5367,0.5368,0,0,0,0,0,0,0,0,0.5346,0.5349,0.5366,0.5365,0.5363,0.5369,0.5375,0.5396,0.5354,0.5357,0.5349,0.5347,0.5363,0.5365,0.537,0.5407,0.5407,0.5368,0.5369,0.537,0.537,0,0,0,0,0,0,0,0.5345,0.5348,0.5385,0.5366,0.5365,0.5355,0.5355,0.5379,0.5369,0.5356,0.5354,0.5355,0.5362,0.5368,0.537,0.5407,0.5367,0.5369,0.537,0.5371,0.5478,0.5479,0,0,0,0,0,0,0.5346,0.5347,0.5384,0.5385,0.535,0.5357,0.5358,0.5369,0.5369,0.5367,0.5356,0.5353,0.5366,0.5368,0.537,0.542,0.537,0.5371,0.5372,0.5476,0.5478,0.548,0,0,0,0,0,0,0.5345,0.5349,0.5384,0.5365,0.5369,0.536,0.5372,0.537,0.5376,0.5369,0.5367,0.5365,0.5365,0.5367,0.5397,0.542,0.5372,0.5374,0.5474,0.5477,0.5479,0.5523,0,0,0,0,0,0,0.5344,0.5349,0.5367,0.5366,0.537,0.5412,0.5374,0.5371,0.5379,0.5375,0.5376,0.5375,0.5363,0.5394,0.5399,0.5422,0.5375,0.5472,0.5475,0.5478,0.5519,0.5527,0.5533,0,0,0,0,0,0.5342,0.538,0.5368,0.5373,0.5392,0.5413,0.5415,0.5402,0.5381,0.5398,0.5393,0.5375,0.5417,0.5398,0.5402,0.5427,0.547,0.5474,0.5478,0.5516,0.5525,0.5533,0,0,0,0,0,0,0.5386,0.538,0.5367,0.5406,0.541,0.5407,0.5428,0.5412,0.5423,0.5418,0.5401,0.5401,0.5433,0.5433,0.5411,0.5468,0.544,0.5445,0.5467,0.5476,0.5482,0.5482,0.5377,0,0,0,0,0,0.54,0.5417,0.5411,0.5446,0.5449,0.5438,0.5447,0.5435,0.5439,0.5441,0.5438,0.5443,0.5456,0.5466,0.5479,0.5519,0.5517,0.5537,0.5544,0.555,0.5554,0.5572,0.558,0.5492,0.5492,0.5492,0,0,0.5429,0.5428,0.5441,0.5455,0.5457,0.5474,0.544,0.5461,0.5474,0.5444,0.5471,0.5469,0.5472,0.5506,0.5521,0.5507,0.5578,0.5554,0.5559,0.556,0.5577,0.5585,0.5593,0.5495,0.5494,0.5494,0,0,0.5492,0.5494,0.5522,0.5524,0.5526,0.5518,0.5525,0.5523,0.552,0.5547,0.5524,0.5538,0.5563,0.5566,0.557,0.5629,0.5611,0.5634,0.5669,0.5687,0.5694,0.57,0.5719,0.5726,0.5638,0.5638,0.5638,0,0.5529,0.5555,0.5538,0.556,0.5565,0.5538,0.5565,0.5568,0.5575,0.5579,0.5563,0.5591,0.5592,0.5624,0.5638,0.5643,0.5649,0.5634,0.5694,0.57,0.5705,0.5723,0.5731,0.5641,0.5641,0.564,0.564,0,0.5598,0.5616,0.5638,0.5644,0.5652,0.5677,0.5663,0.5673,0.566,0.5653,0.5679,0.5678,0.5688,0.5695,0.5684,0.5725,0.5716,0.5697,0.5669,0.5717,0.5733,0.574,0.5645,0.5644,0.5643,0.5642,0,0,0.5691,0.5685,0.5693,0.5694,0.5693,0.5706,0.5728,0.5737,0.5745,0.575,0.5767,0.5787,0.5768,0.5773,0.5761,0.5777,0.5821,0.5756,0.5756,0.5767,0.5864,0.5877,0.5886,0.5809,0.581,0.5811,0.5863,0,0.5751,0.5788,0.5772,0.581,0.5825,0.5797,0.5816,0.5817,0.581,0.5821,0.5814,0.5827,0.5803,0.5805,0.582,0.5813,0.584,0.5809,0.5823,0.5824,0.5822,0.5895,0.591,0.5959,0.587,0.5871,0.5872,0,0.5827,0.5832,0.5872,0.5865,0.5871,0.5888,0.5893,0.5904,0.5904,0.5897,0.5901,0.5884,0.5904,0.5875,0.59,0.5879,0.5883,0.588,0.5882,0.5882,0.585,0.5896,0.5975,0.5982,0.5882,0.5881,0.588,0,0.5888,0.5906,0.5931,0.5932,0.5926,0.5938,0.5936,0.5933,0.5939,0.5943,0.5946,0.5953,0.5957,0.5962,0.5947,0.5928,0.5973,0.5944,0.5967,0.5968,0.5978,0.5978,0.6058,0.5983,0.5983,0.5983,0.5982,0,0.5956,0.5981,0.5958,0.5973,0.5999,0.5979,0.6005,0.6,0.5997,0.601,0.5987,0.5999,0.5979,0.5989,0.5977,0.5998,0.6,0.5995,0.5991,0.5996,0.5997,0.5999,0.5995,0.5985,0.5984,0.5984,0.5983,0,0.6029,0.6015,0.604,0.603,0.6028,0.6048,0.6039,0.6052,0.6043,0.6059,0.6062,0.6047,0.6057,0.6042,0.6051,0.6043,0.6071,0.6063,0.6071,0.6068,0.6092,0.609,0.6176,0.6185,0.6105,0.6106,0.6107,0,0.6074,0.6091,0.6083,0.6089,0.6088,0.6099,0.6104,0.6084,0.609,0.6088,0.6101,0.6109,0.6114,0.6131,0.612,0.6126,0.6117,0.6147,0.6118,0.6122,0.6116,0.6114,0.6115,0.6153,0.6154,0.6155,0.6155,0,0.6153,0.6144,0.6151,0.6156,0.6161,0.6164,0.6165,0.6172,0.6151,0.6158,0.6167,0.6171,0.6178,0.6186,0.6188,0.6185,0.6166,0.6164,0.6169,0.6175,0.6178,0.6175,0.6086,0.6162,0.6162,0.6161,0.6161,0.616,0.6212,0.6225,0.622,0.6228,0.6226,0.6227,0.6238,0.6228,0.6236,0.624,0.6228,0.6239,0.6235,0.6236,0.6234,0.6242,0.6229,0.6238,0.624,0.6242,0.6245,0.6177,0.6243,0.6243,0.6242,0.6242,0.6242,0,0.6288,0.6283,0.629,0.6291,0.6297,0.6278,0.6277,0.6283,0.6293,0.629,0.6295,0.6304,0.631,0.6299,0.6303,0.6312,0.6303,0.6313,0.6312,0.6311,0.6257,0.6251,0.632,0.632,0.632,0.632,0.632,0.632,0.6328,0.6349,0.6339,0.6358,0.6352,0.6362,0.6363,0.6363,0.636,0.6371,0.6376,0.6368,0.6361,0.6364,0.6368,0.6364,0.6366,0.6379,0.6373,0.6323,0.6315,0.6308,0.6302,0.638,0.638,0.6426,0.6426,0.6426]},{"header":{"parameterUnit":"m.s-1","parameterCategory":1,"la1":30.2991,"la2":30.254,"lo1":-89.0895,"lo2":-89.0444,"dy":0.0017,"dx":0.0017,"nx":28,"ny":28,"refTime":"2025-06-16T21:00:00:Z","depth":0,"parameterNumber":3,"parameterNumberName":"V-component_of_WINDS"},"data":[0,0,0,0,0,0,0,0,0,0,0,0,0,0,0,0,0,0,0,0,0,0,0,0,0,0,0,0,0,0,0,0,0,0,0,0,0,0,0,0,0,0,0,0,0,0,0,0,0,0,0,0,0,0,0,0,0,0,5.146,5.1462,0,5.168,5.1683,5.1685,5.168,5.1677,5.1674,5.1671,5.1894,5.1902,5.1911,0,0,0,0,0,0,0,0,0,0,0,0,0,5.1028,5.1036,5.1459,5.1462,5.1465,5.168,5.1683,5.1686,5.168,5.1677,5.1673,5.1669,5.1891,5.1901,5.1911,0,0,0,0,0,0,0,0,0,0,0,0,0,5.1229,5.1039,5.1459,5.1488,5.1493,5.1679,5.1683,5.1687,5.1681,5.1676,5.1672,5.1668,5.1887,5.19,5.1913,5.2084,0,0,5.1953,5.1958,0,0,0,0,0,0,0,0,5.1217,5.1244,5.1481,5.1486,5.1492,5.1648,5.1612,5.182,5.1682,5.161,5.1671,5.1666,5.1815,5.1834,5.1885,5.2094,5.2104,5.1954,5.1962,5.1968,5.1971,0,0,0,0,0,0,0,5.1203,5.1235,5.1547,5.1484,5.1491,5.1488,5.1512,5.1652,5.1735,5.1615,5.1616,5.1642,5.1817,5.1872,5.189,5.2107,5.1954,5.1965,5.1973,5.1978,5.2464,5.2469,0,0,0,0,0,0,5.1184,5.1223,5.154,5.1553,5.1341,5.15,5.1526,5.1602,5.1733,5.1749,5.1646,5.1641,5.1852,5.1875,5.1898,5.2105,5.1967,5.198,5.1987,5.2459,5.2465,5.247,0,0,0,0,0,0,5.1175,5.1212,5.1531,5.1389,5.1429,5.1512,5.1598,5.1609,5.1664,5.1756,5.177,5.1687,5.185,5.188,5.2037,5.2113,5.1986,5.1997,5.2453,5.2461,5.2468,5.2521,0,0,0,0,0,0,5.1162,5.1209,5.1276,5.139,5.1437,5.1668,5.1602,5.1617,5.1687,5.1683,5.1799,5.1814,5.1848,5.2018,5.205,5.2128,5.2008,5.2446,5.2456,5.2465,5.2513,5.253,5.2544,0,0,0,0,0,5.1147,5.1282,5.128,5.1318,5.1523,5.1672,5.1699,5.1737,5.1693,5.1761,5.1819,5.181,5.2099,5.2034,5.207,5.2154,5.2442,5.2454,5.2465,5.2506,5.2527,5.2544,0,0,0,0,0,0,5.1175,5.1298,5.1296,5.1473,5.1562,5.1671,5.1757,5.1758,5.1861,5.1853,5.1894,5.1921,5.2078,5.2131,5.2056,5.2324,5.2265,5.2284,5.2284,5.2304,5.2319,5.2303,5.2019,0,0,0,0,0,5.1202,5.1314,5.1415,5.1561,5.1606,5.1674,5.1741,5.1762,5.1856,5.1894,5.1964,5.2054,5.2165,5.2237,5.2345,5.252,5.2544,5.2596,5.2611,5.2623,5.2639,5.2734,5.2757,5.2508,5.2508,5.2507,0,0,5.1258,5.1339,5.1408,5.1569,5.1641,5.1755,5.1706,5.1829,5.1914,5.1912,5.2065,5.2119,5.2223,5.2389,5.2466,5.2439,5.2713,5.2638,5.2647,5.2656,5.2748,5.2772,5.2792,5.2515,5.2514,5.2513,0,0,5.1419,5.1493,5.1621,5.1694,5.1803,5.1847,5.1877,5.1986,5.2022,5.2177,5.2177,5.2277,5.2468,5.2541,5.2603,5.2788,5.2783,5.2822,5.2903,5.2995,5.3014,5.3032,5.3097,5.3119,5.2838,5.2838,5.2838,0,5.1475,5.1649,5.1687,5.1811,5.1881,5.1884,5.2014,5.2082,5.222,5.2267,5.2235,5.2473,5.2543,5.2726,5.2771,5.2821,5.2856,5.2809,5.3008,5.3027,5.3043,5.3106,5.313,5.2842,5.2841,5.2841,5.2841,0,5.1711,5.1831,5.1922,5.2055,5.2135,5.2261,5.2317,5.2393,5.2406,5.2453,5.2608,5.2692,5.2815,5.286,5.2875,5.3045,5.3024,5.3,5.294,5.3071,5.313,5.3154,5.2847,5.2846,5.2845,5.2844,0,0,5.1898,5.205,5.2082,5.2142,5.2261,5.2354,5.2478,5.26,5.2663,5.2757,5.2862,5.3022,5.2999,5.307,5.3092,5.3173,5.3312,5.3139,5.3141,5.3167,5.3502,5.352,5.3547,5.3309,5.3314,5.3318,5.3493,0,5.2071,5.2294,5.2331,5.2525,5.2635,5.2639,5.2747,5.2831,5.2877,5.2975,5.3025,5.3138,5.31,5.3142,5.3222,5.3279,5.338,5.3266,5.3405,5.341,5.3379,5.3578,5.3598,5.3759,5.3517,5.3521,5.3524,0,5.2303,5.2403,5.2609,5.2711,5.2759,5.2856,5.2968,5.3063,5.3157,5.3184,5.3262,5.3274,5.3402,5.3336,5.3511,5.3433,5.3491,5.3527,5.3534,5.3549,5.3475,5.3597,5.3812,5.3836,5.3561,5.3558,5.3555,0,5.2417,5.2603,5.275,5.2801,5.2925,5.2992,5.3046,5.3136,5.3206,5.3303,5.3348,5.346,5.352,5.3605,5.3646,5.3595,5.3818,5.3756,5.3843,5.3842,5.389,5.3886,5.4117,5.3928,5.3928,5.3927,5.3927,0,5.2606,5.2731,5.2803,5.2893,5.3032,5.3072,5.3209,5.3261,5.334,5.3439,5.3449,5.3541,5.359,5.3689,5.3722,5.386,5.3888,5.3913,5.392,5.3912,5.3909,5.3951,5.394,5.3934,5.3932,5.3931,5.393,0,5.2757,5.2811,5.297,5.3073,5.3102,5.32,5.3288,5.3374,5.3419,5.3543,5.3575,5.3645,5.3762,5.3811,5.3954,5.3976,5.4135,5.4134,5.4104,5.4106,5.4189,5.418,5.4455,5.4492,5.4279,5.4281,5.4283,0,5.2875,5.2971,5.3084,5.3151,5.3207,5.3316,5.3386,5.3428,5.3501,5.3614,5.3687,5.3803,5.3899,5.4085,5.4148,5.4257,5.4258,5.4347,5.4275,5.4263,5.4258,5.4252,5.4261,5.436,5.4362,5.4364,5.4365,0,5.3076,5.3097,5.3199,5.3311,5.3395,5.3484,5.3571,5.3625,5.368,5.3761,5.3881,5.3955,5.4101,5.4216,5.4329,5.4383,5.4383,5.4387,5.4413,5.4406,5.4384,5.4396,5.4139,5.4381,5.4379,5.4378,5.4377,5.4377,5.3214,5.3299,5.3391,5.3504,5.3574,5.3654,5.374,5.3795,5.3896,5.4018,5.4036,5.4163,5.4252,5.4403,5.4461,5.456,5.4538,5.4576,5.4585,5.4593,5.4598,5.4368,5.4581,5.4581,5.458,5.458,5.458,0,5.3415,5.3474,5.3578,5.3699,5.3787,5.3779,5.3875,5.3948,5.4061,5.4144,5.4238,5.4374,5.4485,5.4556,5.4667,5.4733,5.4736,5.4761,5.4756,5.4768,5.4612,5.4579,5.4757,5.4757,5.4756,5.4756,5.4756,5.4756,5.353,5.3673,5.3704,5.3881,5.3939,5.4064,5.4119,5.4192,5.4259,5.4411,5.4503,5.4548,5.4626,5.4743,5.4844,5.4862,5.4902,5.4929,5.4945,5.4798,5.4779,5.4762,5.473,5.4937,5.4937,5.5092,5.5093,5.5095]}]]